Dewpoint
57 57 57 57 58 58 58 58 58 58 58 57 57 57 58 59 58 54 35 40 45 59 58 31 36 41 42 63 62 63 56 53 54 55 56 60 59 58 56 54 53 54 58 62 63
56 57 57 56 56 56 56 56 56 57 56 56 57 57 58 59 54 45 52 61 62 59 28 29 36 38 40 61 63 59 55 52 56 58 58 56 60 59 56 53 53 56 61 63 64
56 56 56 56 56 56 56 57 57 56 56 56 56 57 58 58 52 46 63 63 62 57 28 27 30 36 38 60 62 60 54 55 55 58 59 59 57 60 57 53 53 58 60 61 61
56 56 56 56 56 56 56 56 57 56 57 56 57 57 58 55 38 43 67 66 63 44 31 34 37 35 33 55 59 56 59 56 58 59 59 58 60 60 56 54 55 55 59 59 60
55 55 55 56 56 56 56 56 56 56 56 56 57 58 55 50 47 55 67 64 48 34 37 36 39 33 31 54 52 54 58 59 59 58 60 60 58 60 56 58 57 54 55 56 58
55 55 55 55 55 55 56 56 56 56 56 57 58 57 52 45 51 57 51 45 32 32 36 40 37 30 27 47 51 54 60 57 58 60 59 59 60 61 59 58 56 55 56 57 58
55 55 55 55 55 55 56 56 56 56 56 58 59 55 51 45 46 49 34 28 27 33 33 33 33 27 37 53 56 59 54 58 59 59 58 59 54 56 61 59 54 56 57 56 57
55 54 55 55 55 55 56 55 56 56 57 59 58 54 45 50 42 38 30 28 25 29 32 30 21 29 36 55 54 53 56 53 58 57 58 57 49 54 60 59 55 56 56 58 58
56 56 56 55 55 55 55 55 56 57 58 57 53 52 46 48 29 32 32 29 26 19 17 14 18 25 27 41 43 51 50 52 54 58 53 57 53 54 58 58 57 55 57 58 59
56 56 56 56 55 55 54 54 55 55 56 56 52 45 44 36 31 31 31 29 19 20 13 18 17 20 23 31 33 46 48 48 51 55 55 56 56 57 56 57 57 56 56 58 58
56 56 56 56 55 54 51 46 43 43 51 38 42 38 38 31 28 28 29 26 26 15 11 13 12 15 21 25 31 38 45 50 51 56 57 56 55 56 56 56 56 57 58 57 57
56 55 55 55 54 53 50 39 42 39 32 40 40 43 41 29 28 28 27 20 22 17 18 11 9 11 19 22 24 27 48 51 53 55 56 56 55 56 55 55 55 57 58 57 60
55 55 55 54 53 49 45 43 43 38 32 33 37 37 27 29 27 25 22 20 16 17 15 10 8 12 13 15 16 28 48 50 47 47 55 54 52 55 56 57 56 57 58 58 59
55 55 54 52 46 44 38 41 34 38 30 31 33 26 27 29 27 25 18 16 21 15 14 12 12 9 11 12 21 40 47 44 45 44 41 51 42 54 55 54 55 54 57 59 60
55 54 53 52 46 35 33 34 34 34 27 34 25 26 26 26 23 22 24 25 23 23 23 15 15 13 12 12 27 32 42 42 45 44 37 37 42 44 56 55 56 54 56 58 59
54 54 52 49 48 45 44 38 34 29 27 28 25 24 24 24 23 22 22 25 25 25 22 18 20 20 20 24 24 27 35 36 38 36 33 38 41 45 52 55 55 56 54 56 58
53 52 51 48 39 40 34 35 29 26 30 24 24 24 23 23 20 20 20 21 21 15 16 17 16 19 21 21 21 22 24 24 33 34 33 40 40 48 52 53 55 57 55 54 56
51 51 51 49 48 43 37 31 30 30 31 32 23 24 23 23 18 19 21 19 21 19 18 16 15 17 19 19 20 23 22 22 22 29 32 38 38 46 53 53 56 57 58 56 55
51 49 48 48 48 41 36 30 30 31 30 28 19 18 18 22 20 20 21 20 21 21 20 19 17 18 18 19 19 18 15 22 22 29 33 41 45 51 49 51 55 58 59 59 58
49 48 46 44 43 35 33 33 31 31 29 27 17 20 23 22 21 22 21 20 22 22 21 23 21 20 18 22 31 26 19 20 34 32 32 40 43 42 46 51 54 56 57 59 60
48 43 43 40 33 30 29 32 32 31 30 28 26 22 22 26 25 24 23 23 26 22 23 31 26 26 36 36 34 33 34 39 42 39 35 35 39 50 50 53 54 54 55 58 60
47 38 40 32 28 32 30 33 35 31 33 30 21 22 21 23 27 27 28 27 28 27 29 34 29 34 35 38 38 36 38 36 33 36 40 40 38 53 54 55 53 54 53 58 60
43 44 43 33 28 31 32 33 33 32 31 28 23 20 23 19 23 29 30 29 30 31 29 34 28 32 30 31 33 34 35 36 39 41 39 36 38 52 55 54 54 54 55 59 61
45 41 41 40 37 33 33 31 29 30 28 28 28 22 20 18 21 26 27 31 29 31 51 38 26 27 25 26 34 35 36 37 35 34 39 38 41 45 49 54 54 54 57 62 63
46 43 45 42 42 42 39 35 34 32 31 30 27 24 20 18 21 26 27 28 31 47 32 24 21 25 25 34 37 33 34 35 36 37 36 41 43 43 48 52 51 56 59 61 63
43 44 45 44 44 38 36 32 31 29 29 27 29 28 23 21 23 22 27 27 28 31 28 29 24 37 29 34 35 35 38 37 39 42 43 45 43 45 48 49 57 59 60 61 63
47 48 46 43 42 39 36 39 39 35 35 34 32 33 30 24 23 24 24 22 29 29 31 32 30 28 29 30 33 32 37 37 38 41 38 41 47 51 52 57 57 59 60 60 61
Lifted_Index
16 16 17 17 17 17 17 17 17 16 16 16 16 16 15 15 14 14 13 13 13 12 11 8 5 5 4 1 -1 -1 0 0 0 -0 -1 -1 -1 -1 -1 -1 -0 -1 -1 -2 -2
17 17 17 17 17 17 17 17 17 17 16 16 16 16 15 15 13 12 13 12 12 12 11 8 5 5 4 1 -1 -1 -0 0 -0 -1 -1 -1 -1 -1 -1 -1 -1 -1 -1 -1 -1
17 17 17 17 17 17 17 17 17 17 16 16 16 16 15 13 11 10 11 11 11 12 10 8 6 5 3 -0 -1 -1 -1 -1 -1 -1 -1 -0 -1 -1 -1 -1 -1 -1 -1 -1 -1
17 17 17 17 17 17 17 16 16 16 16 16 16 15 14 11 9 8 8 9 10 11 10 7 5 4 2 -0 -1 -1 -2 -2 -1 -1 -1 -0 -1 -1 -1 -1 -1 -1 -1 -1 -0
17 17 17 17 17 17 16 16 15 15 15 16 16 14 12 9 8 7 8 9 11 11 10 7 6 5 4 1 -0 -0 -1 -2 -2 -1 -1 -1 -1 -1 -2 -1 -1 -1 -1 -0 -0
17 17 17 17 17 17 16 15 15 14 15 15 15 13 10 9 8 8 9 11 12 11 10 8 8 8 5 2 0 -0 -1 -2 -2 -1 -1 -1 -1 -1 -1 -1 -1 -1 -1 -0 -0
17 17 17 17 17 16 15 14 14 14 14 14 13 12 10 9 9 9 11 12 12 11 10 10 9 8 5 1 -0 -1 -1 -2 -2 -2 -2 -1 -1 -1 -1 -1 -1 -0 -0 -0 -0
16 16 17 17 17 16 15 14 13 13 13 13 12 10 9 9 9 10 10 11 11 11 10 10 9 7 4 1 -1 -1 -2 -2 -2 -2 -2 -1 -0 -0 -0 -1 -1 -1 -1 -1 -0
15 16 16 17 17 15 14 13 13 12 12 12 11 9 8 8 9 9 9 10 11 11 11 9 7 5 3 1 -1 -2 -2 -1 -1 -1 -1 -1 -1 -0 -0 -0 -1 -0 -0 -1 -1
14 15 16 16 16 14 12 11 11 11 11 10 9 8 8 8 9 9 9 9 10 10 10 9 7 4 2 1 -0 -2 -2 -1 -1 -1 -1 -2 -1 -0 0 -0 -1 -0 -0 -0 -1
14 14 15 15 15 13 11 10 9 9 9 9 8 7 7 8 8 9 9 9 9 9 9 7 6 4 2 1 0 -1 -2 -2 -2 -2 -3 -3 -2 -1 -0 -0 -0 -0 -0 -0 -0
13 13 14 14 14 12 10 9 9 8 8 7 7 7 7 7 8 8 8 9 9 8 7 6 5 4 3 2 2 0 -2 -3 -2 -2 -3 -3 -3 -2 -1 -0 -0 -1 -0 -0 -0
12 13 13 13 13 11 9 9 9 8 7 6 6 6 6 7 7 7 8 8 8 7 6 5 5 4 4 3 2 0 -2 -3 -2 -2 -3 -3 -3 -3 -2 -1 -0 -0 -1 -0 -0
12 12 12 13 12 10 9 9 9 7 5 5 5 6 6 6 6 6 7 7 7 6 6 5 5 4 4 3 1 -0 -2 -2 -2 -2 -2 -2 -2 -2 -3 -2 -1 -1 -1 -1 -1
11 11 12 12 11 10 9 8 8 6 4 4 5 5 6 5 6 6 6 6 6 6 5 5 4 4 3 2 1 -1 -2 -2 -2 -2 -1 -1 -1 -2 -2 -3 -2 -1 -1 -1 -1
11 11 11 11 11 10 9 8 6 5 3 4 4 4 4 4 5 5 5 5 5 5 4 4 3 3 2 2 1 0 -1 -2 -2 -2 -1 -1 -1 -1 -2 -3 -2 -1 -1 -0 -0
11 10 11 11 11 10 9 7 5 3 3 3 3 3 3 4 4 4 4 4 4 3 3 3 2 2 2 2 2 1 -0 -1 -1 -1 -1 -1 -1 -2 -2 -2 -2 -2 -1 0 0
10 10 10 11 11 10 8 6 4 3 3 3 2 2 2 3 3 2 2 3 3 3 3 2 2 2 2 2 2 2 1 0 -0 -0 -0 -1 -2 -2 -2 -2 -2 -2 -1 -1 0
10 10 10 10 10 9 7 5 3 2 2 3 2 1 1 1 2 2 2 2 3 3 2 1 2 2 2 2 2 2 1 1 0 0 0 -1 -1 -2 -2 -1 -1 -2 -2 -1 -1
10 9 9 9 9 8 6 4 3 2 3 3 2 1 1 0 1 1 1 1 2 2 1 1 1 1 2 2 2 2 1 1 0 -0 -0 -0 -1 -1 -1 -1 -1 -1 -2 -2 -1
9 8 8 9 9 8 6 4 3 3 3 3 3 2 1 0 0 0 0 0 1 1 1 1 1 1 1 1 1 1 1 0 0 -0 0 0 -0 -1 -1 -1 -1 -1 -1 -2 -2
8 8 8 8 8 7 6 5 4 3 3 3 3 2 1 1 0 -0 -0 -0 1 1 1 1 1 0 0 0 1 0 0 0 0 0 0 0 0 -0 -1 -0 0 0 -0 -1 -1
8 8 7 7 6 6 5 5 4 3 3 3 3 3 2 1 1 0 -0 0 1 1 1 1 1 0 0 0 1 0 0 0 0 0 0 0 0 -0 -1 -0 1 1 1 0 -0
7 7 6 6 5 5 5 4 4 3 3 3 3 3 2 2 1 1 0 0 1 1 1 2 2 1 1 1 1 0 0 1 1 0 0 -0 -0 -0 -0 -0 0 0 0 -0 -0
7 6 5 5 4 4 4 3 3 2 2 2 2 2 2 2 2 2 1 1 1 1 1 2 3 2 2 1 0 0 0 1 1 0 0 -0 -0 -0 -0 -1 -1 -1 -1 -1 -2
6 6 5 5 4 4 3 2 2 2 2 2 1 1 1 1 2 2 1 1 1 1 2 2 2 2 1 1 0 0 0 0 0 0 -0 -0 -1 -0 -1 -2 -3 -2 -2 -2 -3
6 6 5 5 4 4 3 2 1 1 2 2 1 0 0 1 2 1 1 1 1 1 2 2 2 1 1 1 1 0 -0 -0 0 0 -0 -0 -1 -1 -1 -3 -3 -3 -3 -3 -3